Home > Weather > Hereford > Past weeks

Flag for USA Weather for the Past 2 Weeks in Hereford, Texas, USA

Now
43 °F

Passing clouds.


Feels Like: 39 °F
Forecast: 38 / 65 °F
Wind: 6 mph from North

Location: Clovis Municipal

Current Time: Apr 30, 2016 at 4:15:04 AM

Latest Report: Apr 30, 2016 at 3:35 AM


Visibility: 10 mi

Pressure: 29.85 "Hg (25.88 "Hg at 1167m altitude)

Humidity: 81%

Dew Point: 37 °F

Location of HerefordLocation

Historic Weather in Hereford — Graph

°F

Hereford Temperature Yesterday

Maximum temperature yesterday: 66 °F (at 4:55 PM)
Minimum temperature yesterday: 45 °F (at 11:35 PM)
Average temperature yesterday: 56 °F

High & Low Weather Summary for the Past Weeks

 TemperatureHumidityPressure
High82 °F (Apr 23, 3:15 PM)93% (Apr 20, 1:35 AM)30.30 "Hg (Apr 20, 1:35 AM)
Low36 °F (Apr 17, 6:55 AM)11% (Apr 16, 5:35 PM)29.60 "Hg (Apr 15, 6:55 PM)
Average59 °F50%29.93 "Hg
* Reported Apr 15 2:35 AM — Apr 30 2:55 AM, Hereford, Weather by CustomWeather, © 2016

Note: Actual official high and low records may vary slightly from our data, if they occured in-between our weather recording intervals... More about our weather records

Advertising

Hereford Weather History for the Previous 24 Hours

Scroll right to see more
 ConditionsComfort  
Time TempWeatherWind HumidityBarometerVisibility
2:55 AM
Sat, Apr 30
43 °FLow clouds.9 mph81%29.84 "Hg10 mi
2:15 AM45 °FLow clouds.12 mph81%29.86 "Hg10 mi
1:35 AM45 °FLow clouds.7 mph81%29.87 "Hg10 mi
12:55 AM45 °FLow clouds.10 mph81%29.85 "Hg10 mi
12:15 AM45 °FPassing clouds.6 mph81%29.85 "Hg10 mi
11:55 PM
Fri, Apr 29
45 °FClear.6 mph81%29.84 "Hg10 mi
11:35 PM45 °FClear.6 mph81%29.83 "Hg10 mi
10:55 PM46 °FClear.7 mph82%29.83 "Hg10 mi
10:35 PM48 °FClear.12 mph76%29.83 "Hg10 mi
10:15 PM48 °FClear.10 mph82%29.82 "Hg10 mi
9:35 PM52 °FClear.12 mph67%29.81 "Hg10 mi
9:15 PM52 °FSunny.13 mph67%29.80 "Hg10 mi
8:55 PM52 °FSunny.10 mph67%29.79 "Hg10 mi
8:15 PM55 °FPassing clouds.16 mph59%29.78 "Hg10 mi
7:55 PM59 °FBroken clouds.13 mph55%29.77 "Hg8 mi
7:35 PM61 °FSunny.13 mph52%29.77 "Hg10 mi
6:55 PM63 °FScattered clouds.15 mph49%29.75 "Hg10 mi
6:35 PM63 °FPassing clouds.10 mph39%29.74 "Hg10 mi
6:15 PM64 °FScattered clouds.6 mph37%29.74 "Hg10 mi
5:55 PM64 °FPartly sunny.9 mph37%29.74 "Hg10 mi
5:35 PM64 °FSunny.10 mph34%29.74 "Hg10 mi
5:15 PM64 °FSunny.16 mph34%29.74 "Hg10 mi
4:55 PM66 °FSunny.16 mph35%29.74 "Hg10 mi
4:35 PM64 °FSunny.16 mph37%29.75 "Hg10 mi
4:15 PM64 °FSunny.14 mph40%29.75 "Hg10 mi
3:55 PM64 °FSunny.15 mph40%29.75 "Hg10 mi
3:35 PM63 °FSunny.15 mph45%29.76 "Hg10 mi
3:15 PM61 °FSunny.20 mph55%29.77 "Hg10 mi
2:55 PM57 °FThundershowers. Passing clouds.25 mph63%29.79 "Hg10 mi
2:35 PM57 °FBroken clouds.28 mph63%29.79 "Hg10 mi
2:15 PM61 °FScattered clouds.6 mph59%29.78 "Hg10 mi
1:55 PM57 °FBroken clouds.3 mph63%29.78 "Hg10 mi
1:35 PM57 °FBroken clouds.7 mph63%29.79 "Hg10 mi
1:15 PM55 °FPassing clouds.3 mph67%29.80 "Hg10 mi
12:55 PM55 °FScattered clouds.No wind67%29.81 "Hg7 mi
12:35 PM54 °FMostly cloudy.6 mph72%29.81 "Hg10 mi
12:15 PM54 °FMostly cloudy.8 mph72%29.81 "Hg10 mi
11:55 AM54 °FOvercast.13 mph77%29.81 "Hg10 mi
11:35 AM52 °FOvercast.14 mph77%29.81 "Hg10 mi
11:15 AM52 °FLow clouds.17 mph82%29.81 "Hg10 mi
10:55 AM52 °FLow clouds.17 mph82%29.81 "Hg10 mi
10:35 AM48 °FLow clouds.18 mph87%29.82 "Hg10 mi
10:15 AM48 °FLow clouds.16 mph87%29.82 "Hg10 mi
9:55 AM48 °FLow clouds.18 mph87%29.82 "Hg10 mi
9:35 AM48 °FLow clouds.17 mph87%29.82 "Hg10 mi
9:15 AM46 °FLow clouds.23 mph87%29.81 "Hg10 mi
8:55 AM48 °FLow clouds.24 mph82%29.80 "Hg10 mi
8:35 AM48 °FLow clouds.25 mph82%29.78 "Hg10 mi
8:15 AM48 °FLow clouds.25 mph82%29.77 "Hg10 mi
7:55 AM48 °FLow clouds.29 mph87%29.76 "Hg10 mi
7:35 AM48 °FLow clouds.29 mph87%29.76 "Hg10 mi
7:15 AM50 °FLow clouds.26 mph82%29.75 "Hg5 mi
6:55 AM52 °FMostly cloudy.22 mph82%29.75 "Hg10 mi
6:35 AM55 °FLow clouds.17 mph77%29.72 "Hg10 mi
6:15 AM61 °FMostly cloudy.10 mph83%29.71 "Hg5 mi
5:55 AM61 °FMostly cloudy.10 mph83%29.69 "Hg7 mi
5:35 AM59 °FMostly cloudy.7 mph88%29.69 "Hg7 mi
5:15 AM57 °FThundershowers. Overcast.No wind88%29.70 "Hg7 mi
4:55 AM57 °FThunderstorms. Overcast.7 mph82%29.70 "Hg5 mi
4:35 AM59 °FThunderstorms. Mostly cloudy.12 mph82%29.71 "Hg10 mi
4:15 AM59 °FThundershowers. Overcast.12 mph88%29.71 "Hg10 mi
Weather by CustomWeather, © 2016

See weather overviewHow to use our weather pages